| time (UTC) | temp F | wind direction | speed knots | gust knots | rain 1hr in | rain 24hr in | rain mn in | humidity % | barometer mb |
| 20260503200509 | 79 | 18 | 1.7 | 9.6 | 0.00 | 0.00 | 0.00 | 35 | 1013.6 |
| 20260503200006 | 79 | 34 | 3.5 | 7.0 | 0.00 | 0.00 | 0.00 | 35 | 1013.7 |
| 20260503195506 | 78 | 14 | 3.5 | 7.8 | 0.00 | 0.00 | 0.00 | 37 | 1013.8 |
| 20260503195010 | 78 | 41 | 3.5 | 7.8 | 0.00 | 0.00 | 0.00 | 37 | 1013.9 |
| 20260503194524 | 77 | 352 | 2.6 | 5.2 | 0.00 | 0.00 | 0.00 | 39 | 1013.9 |
| 20260503194004 | 77 | 323 | 3.5 | 5.2 | 0.00 | 0.00 | 0.00 | 41 | 1014.0 |
| 20260503193510 | 77 | 349 | 1.7 | 4.3 | 0.00 | 0.00 | 0.00 | 42 | 1014.0 |
| 20260503193020 | 77 | 352 | 0.9 | 4.3 | 0.00 | 0.00 | 0.00 | 43 | 1014.0 |
| 20260503192504 | 77 | 32 | 2.6 | 4.3 | 0.00 | 0.00 | 0.00 | 42 | 1014.1 |
| 20260503192006 | 76 | 346 | 2.6 | 4.3 | 0.00 | 0.00 | 0.00 | 41 | 1014.0 |
| 20260503191517 | 76 | 342 | 0.9 | 2.6 | 0.00 | 0.00 | 0.00 | 41 | 1014.0 |
| 20260503191013 | 75 | 275 | 0.0 | 2.6 | 0.00 | 0.00 | 0.00 | 41 | 1014.1 |
| 20260503190505 | 75 | 273 | 0.9 | 2.6 | 0.00 | 0.00 | 0.00 | 43 | 1014.1 |
| 20260503190015 | 74 | 237 | 0.9 | 3.5 | 0.00 | 0.00 | 0.00 | 43 | 1014.2 |
| 20260503185509 | 74 | 278 | 1.7 | 4.3 | 0.00 | 0.00 | 0.00 | 43 | 1014.2 |
| 20260503185003 | 73 | 203 | 1.7 | 4.3 | 0.00 | 0.00 | 0.00 | 44 | 1014.4 |
| 20260503184509 | 73 | 268 | 0.0 | 2.6 | 0.00 | 0.00 | 0.00 | 44 | 1014.4 |
| 20260503184004 | 72 | 297 | 0.9 | 5.2 | 0.00 | 0.00 | 0.00 | 43 | 1014.5 |
| 20260503183509 | 72 | 294 | 1.7 | 4.3 | 0.00 | 0.00 | 0.00 | 46 | 1014.5 |
| 20260503183008 | 71 | 182 | 0.9 | 4.3 | 0.00 | 0.00 | 0.00 | 48 | 1014.6 |
| 20260503182509 | 71 | 352 | 0.0 | 2.6 | 0.00 | 0.00 | 0.00 | 49 | 1014.7 |
| 20260503182009 | 70 | 300 | 0.0 | 3.5 | 0.00 | 0.00 | 0.00 | 48 | 1014.7 |
| 20260503181524 | 70 | 278 | 0.0 | 3.5 | 0.00 | 0.00 | 0.00 | 50 | 1014.7 |
| 20260503181006 | 69 | 244 | 0.0 | 2.6 | 0.00 | 0.00 | 0.00 | 52 | 1014.6 |
| 20260503180507 | 68 | 330 | 0.9 | 2.6 | 0.00 | 0.00 | 0.00 | 52 | 1014.7 |
| 20260503180029 | 67 | 194 | 1.7 | 2.6 | 0.00 | 0.00 | 0.00 | 53 | 1014.7 |
| 20260503175504 | 67 | 269 | 0.0 | 2.6 | 0.00 | 0.00 | 0.00 | 53 | 1014.9 |
| 20260503175008 | 66 | 350 | 0.9 | 2.6 | 0.00 | 0.00 | 0.00 | 53 | 1015.0 |
| 20260503174523 | 66 | 302 | 0.0 | 1.7 | 0.00 | 0.00 | 0.00 | 55 | 1014.9 |
| 20260503174007 | 65 | 188 | 0.0 | 3.5 | 0.00 | 0.00 | 0.00 | 54 | 1015.0 |
| 20260503173507 | 65 | 352 | 0.0 | 3.5 | 0.00 | 0.00 | 0.00 | 55 | 1015.0 |
| 20260503173027 | 65 | 262 | 0.9 | 2.6 | 0.00 | 0.00 | 0.00 | 55 | 1015.1 |
| 20260503172509 | 64 | 335 | 0.9 | 2.6 | 0.00 | 0.00 | 0.00 | 55 | 1015.1 |
| 20260503172012 | 64 | 320 | 1.7 | 2.6 | 0.00 | 0.00 | 0.00 | 56 | 1015.1 |
| 20260503171519 | 63 | 306 | 0.0 | 1.7 | 0.00 | 0.00 | 0.00 | 58 | 1015.2 |
| 20260503171011 | 62 | 278 | 0.9 | 1.7 | 0.00 | 0.00 | 0.00 | 56 | 1015.2 |
| 20260503170509 | 62 | 183 | 0.9 | 1.7 | 0.00 | 0.00 | 0.00 | 62 | 1015.2 |
| 20260503151010 | 51 | 82 | 0.0 | 0.0 | 0.00 | 0.00 | 0.00 | 89 | 1016.1 |
| 20260503150509 | 50 | 82 | 0.0 | 0.0 | 0.00 | 0.00 | 0.00 | 89 | 1016.2 |
| 20260503131005 | 49 | 82 | 0.0 | 0.0 | 0.00 | 0.00 | 0.00 | 89 | 1016.1 |
| 20260503130510 | 49 | 82 | 0.0 | 0.0 | 0.00 | 0.00 | 0.00 | 88 | 1016.1 |
| 20260503110512 | 51 | 82 | 0.0 | 0.0 | 0.00 | 0.00 | 0.00 | 86 | 1016.0 |
| 20260503090509 | 53 | 82 | 0.0 | 0.0 | 0.00 | 0.00 | 0.00 | 80 | 1016.3 |
| 20260503081537 | 54 | 63 | 0.0 | 0.0 | 0.00 | 0.00 | 0.00 | 78 | 1016.1 |
| 20260503081009 | 55 | 63 | 0.0 | 0.0 | 0.00 | 0.00 | 0.00 | 79 | 1016.1 |
| 20260503080508 | 55 | 63 | 0.0 | 0.0 | 0.00 | 0.00 | 0.00 | 79 | 1016.2 |
| 20260503072512 | 56 | 63 | 0.0 | 0.0 | 0.00 | 0.00 | 0.00 | 76 | 1016.2 |
| 20260503072012 | 56 | 63 | 0.0 | 0.0 | 0.00 | 0.00 | 0.00 | 76 | 1016.2 |
| 20260503071536 | 57 | 63 | 0.0 | 0.0 | 0.00 | 0.00 | 0.00 | 74 | 1016.2 |
| 20260503071006 | 57 | 63 | 0.0 | 0.0 | 0.00 | 0.00 | 0.00 | 75 | 1016.2 |
| 20260503070511 | 57 | 45 | 0.0 | 0.0 | 0.00 | 0.00 | 0.00 | 73 | 1016.1 |
| 20260503055008 | 61 | 13 | 0.0 | 0.0 | 0.00 | 0.00 | 0.00 | 70 | 1015.9 |
| 20260503054532 | 61 | 13 | 0.0 | 0.0 | 0.00 | 0.00 | 0.00 | 68 | 1015.8 |
| 20260503054006 | 62 | 13 | 0.0 | 0.0 | 0.00 | 0.00 | 0.00 | 67 | 1015.9 |
| 20260503053505 | 62 | 13 | 0.0 | 0.0 | 0.00 | 0.00 | 0.00 | 66 | 1015.9 |
| 20260503053022 | 62 | 13 | 0.0 | 0.0 | 0.00 | 0.00 | 0.00 | 62 | 1015.9 |
| 20260503052508 | 63 | 13 | 0.0 | 0.0 | 0.00 | 0.00 | 0.00 | 64 | 1015.8 |
| 20260503052007 | 63 | 13 | 0.0 | 0.0 | 0.00 | 0.00 | 0.00 | 60 | 1015.8 |
| 20260503051529 | 63 | 53 | 0.0 | 0.0 | 0.00 | 0.00 | 0.00 | 62 | 1015.8 |
| 20260503051008 | 64 | 76 | 0.0 | 0.0 | 0.00 | 0.00 | 0.00 | 61 | 1015.7 |
| 20260503050503 | 64 | 76 | 0.0 | 0.0 | 0.00 | 0.00 | 0.00 | 59 | 1015.7 |
| 20260503050017 | 65 | 76 | 0.0 | 0.0 | 0.00 | 0.00 | 0.00 | 57 | 1015.7 |
| 20260503045508 | 65 | 76 | 0.0 | 0.0 | 0.00 | 0.00 | 0.00 | 57 | 1015.6 |
| 20260503045011 | 65 | 76 | 0.0 | 1.7 | 0.00 | 0.00 | 0.00 | 55 | 1015.6 |
| 20260503044510 | 65 | 76 | 0.0 | 1.7 | 0.00 | 0.00 | 0.00 | 55 | 1015.6 |
| 20260503044009 | 65 | 63 | 0.0 | 1.7 | 0.00 | 0.00 | 0.00 | 55 | 1015.7 |
| 20260503043513 | 65 | 63 | 0.0 | 1.7 | 0.00 | 0.00 | 0.00 | 57 | 1015.6 |
| 20260503043006 | 65 | 63 | 0.0 | 1.7 | 0.00 | 0.00 | 0.00 | 57 | 1015.5 |
| 20260503042506 | 65 | 63 | 0.0 | 1.7 | 0.00 | 0.00 | 0.00 | 57 | 1015.5 |
| 20260503042006 | 65 | 50 | 0.0 | 1.7 | 0.00 | 0.00 | 0.00 | 57 | 1015.6 |
| 20260503041530 | 65 | 88 | 0.0 | 1.7 | 0.00 | 0.00 | 0.00 | 59 | 1015.5 |
| 20260503041005 | 66 | 98 | 0.0 | 1.7 | 0.00 | 0.00 | 0.00 | 57 | 1015.4 |
| 20260503040507 | 66 | 80 | 0.0 | 1.7 | 0.00 | 0.00 | 0.00 | 58 | 1015.4 |
| 20260503040024 | 67 | 82 | 0.0 | 1.7 | 0.00 | 0.00 | 0.00 | 55 | 1015.3 |
| 20260503035509 | 68 | 105 | 0.0 | 1.7 | 0.00 | 0.00 | 0.00 | 58 | 1015.4 |
| 20260503035006 | 68 | 105 | 0.9 | 0.9 | 0.00 | 0.00 | 0.00 | 57 | 1015.4 |
| 20260503034520 | 69 | 105 | 0.0 | 1.7 | 0.00 | 0.00 | 0.00 | 55 | 1015.3 |
| 20260503034011 | 69 | 105 | 0.0 | 1.7 | 0.00 | 0.00 | 0.00 | 54 | 1015.2 |
| 20260503033503 | 70 | 352 | 0.9 | 1.7 | 0.00 | 0.00 | 0.00 | 49 | 1015.2 |
| 20260503033018 | 71 | 119 | 0.0 | 1.7 | 0.00 | 0.00 | 0.00 | 49 | 1015.1 |
| 20260503032509 | 71 | 119 | 0.0 | 1.7 | 0.00 | 0.00 | 0.00 | 50 | 1015.1 |
| 20260503032010 | 72 | 112 | 0.0 | 1.7 | 0.00 | 0.00 | 0.00 | 48 | 1015.0 |
| 20260503031513 | 73 | 185 | 0.9 | 1.7 | 0.00 | 0.00 | 0.00 | 42 | 1015.0 |
| 20260503031007 | 74 | 34 | 0.0 | 2.6 | 0.00 | 0.00 | 0.00 | 40 | 1014.9 |
| 20260503030511 | 75 | 42 | 0.0 | 2.6 | 0.00 | 0.00 | 0.00 | 43 | 1014.8 |
| 20260503030033 | 75 | 69 | 0.0 | 1.7 | 0.00 | 0.00 | 0.00 | 39 | 1014.9 |
| 20260503025508 | 76 | 112 | 0.9 | 1.7 | 0.00 | 0.00 | 0.00 | 41 | 1014.8 |
| 20260503025007 | 77 | 30 | 0.0 | 1.7 | 0.00 | 0.00 | 0.00 | 35 | 1014.8 |
| 20260503024532 | 78 | 38 | 0.0 | 1.7 | 0.00 | 0.00 | 0.00 | 38 | 1014.7 |
| 20260503024010 | 78 | 49 | 0.0 | 1.7 | 0.00 | 0.00 | 0.00 | 37 | 1014.7 |
| 20260503023507 | 78 | 90 | 0.0 | 2.6 | 0.00 | 0.00 | 0.00 | 37 | 1014.7 |
| 20260503023025 | 78 | 348 | 0.0 | 2.6 | 0.00 | 0.00 | 0.00 | 34 | 1014.7 |
| 20260503022507 | 79 | 82 | 0.9 | 2.6 | 0.00 | 0.00 | 0.00 | 34 | 1014.7 |
| 20260503022006 | 79 | 104 | 0.9 | 4.3 | 0.00 | 0.00 | 0.00 | 34 | 1014.6 |
| 20260503021520 | 79 | 55 | 0.0 | 4.3 | 0.00 | 0.00 | 0.00 | 31 | 1014.6 |
| 20260503021010 | 80 | 40 | 0.0 | 3.5 | 0.00 | 0.00 | 0.00 | 32 | 1014.6 |
| 20260503020507 | 80 | 67 | 0.9 | 3.5 | 0.00 | 0.00 | 0.00 | 32 | 1014.6 |
| 20260503020020 | 80 | 339 | 0.9 | 5.2 | 0.00 | 0.00 | 0.00 | 30 | 1014.6 |
| 20260503015510 | 80 | 86 | 0.0 | 5.2 | 0.00 | 0.00 | 0.00 | 33 | 1014.7 |
| 20260503015012 | 80 | 81 | 0.9 | 4.3 | 0.00 | 0.00 | 0.00 | 32 | 1014.7 |
| 20260503014516 | 80 | 57 | 0.0 | 5.2 | 0.00 | 0.00 | 0.00 | 30 | 1014.8 |
| 20260503014010 | 80 | 95 | 1.7 | 7.0 | 0.00 | 0.00 | 0.00 | 30 | 1014.8 |
| 20260503013509 | 80 | 71 | 1.7 | 7.0 | 0.00 | 0.00 | 0.00 | 32 | 1014.8 |
| 20260503013034 | 80 | 67 | 0.0 | 2.6 | 0.00 | 0.00 | 0.00 | 32 | 1014.9 |
| 20260503012508 | 81 | 84 | 1.7 | 2.6 | 0.00 | 0.00 | 0.00 | 30 | 1014.9 |
| 20260503012011 | 0 | 76 | 0.9 | 4.3 | 0.00 | 0.00 | 0.00 | 30 | 1014.9 |
| 20260503011528 | 81 | 59 | 0.9 | 3.5 | 0.00 | 0.00 | 0.00 | 29 | 1014.9 |
| 20260503011008 | 81 | 65 | 0.0 | 7.0 | 0.00 | 0.00 | 0.00 | 32 | 1014.9 |
| 20260503010507 | 81 | 324 | 0.9 | 7.0 | 0.00 | 0.00 | 0.00 | 29 | 1014.9 |
| 20260503010028 | 81 | 48 | 0.9 | 5.2 | 0.00 | 0.00 | 0.00 | 31 | 1014.9 |
| 20260503005511 | 81 | 24 | 0.9 | 5.2 | 0.00 | 0.00 | 0.00 | 30 | 1015.0 |
| 20260503005008 | 81 | 58 | 0.0 | 3.5 | 0.00 | 0.00 | 0.00 | 32 | 1015.0 |
| 20260503004525 | 81 | 90 | 0.9 | 7.0 | 0.00 | 0.00 | 0.00 | 29 | 1015.0 |
| 20260503004008 | 82 | 95 | 0.9 | 7.0 | 0.00 | 0.00 | 0.00 | 31 | 1015.0 |
| 20260503003506 | 82 | 76 | 1.7 | 5.2 | 0.00 | 0.00 | 0.00 | 29 | 1015.0 |
| 20260503003027 | 81 | 80 | 0.9 | 7.8 | 0.00 | 0.00 | 0.00 | 31 | 1015.0 |
| 20260503002507 | 82 | 76 | 1.7 | 7.8 | 0.00 | 0.00 | 0.00 | 29 | 1015.1 |
| 20260503002010 | 82 | 12 | 3.5 | 8.7 | 0.00 | 0.00 | 0.00 | 28 | 1015.0 |
| 20260503001519 | 82 | 352 | 1.7 | 8.7 | 0.00 | 0.00 | 0.00 | 30 | 1015.1 |
| 20260503001007 | 82 | 48 | 0.9 | 10.4 | 0.00 | 0.00 | 0.00 | 30 | 1015.1 |
| 20260503000511 | 82 | 350 | 1.7 | 9.6 | 0.00 | 0.00 | 0.00 | 28 | 1015.2 |
| 20260503000003 | 82 | 350 | 3.5 | 8.7 | 0.00 | 0.00 | 0.00 | 31 | 1015.1 |
| 20260502235504 | 82 | 77 | 1.7 | 8.7 | 0.00 | 0.00 | 0.00 | 29 | 1015.1 |
| 20260502235003 | 81 | 57 | 1.7 | 7.0 | 0.00 | 0.00 | 0.00 | 30 | 1015.2 |
| 20260502234519 | 81 | 78 | 1.7 | 5.2 | 0.00 | 0.00 | 0.00 | 30 | 1015.2 |
| 20260502234004 | 81 | 82 | 1.7 | 4.3 | 0.00 | 0.00 | 0.00 | 32 | 1015.2 |
| 20260502233503 | 81 | 84 | 1.7 | 6.1 | 0.00 | 0.00 | 0.00 | 30 | 1015.2 |
| 20260502233010 | 81 | 42 | 2.6 | 7.8 | 0.00 | 0.00 | 0.00 | 30 | 1015.3 |
| 20260502232459 | 81 | 78 | 0.9 | 7.8 | 0.00 | 0.00 | 0.00 | 32 | 1015.5 |
| 20260502232003 | 81 | 71 | 1.7 | 7.8 | 0.00 | 0.00 | 0.00 | 31 | 1015.6 |
| 20260502231507 | 81 | 15 | 1.7 | 7.0 | 0.00 | 0.00 | 0.00 | 30 | 1015.7 |
| 20260502231006 | 81 | 348 | 0.9 | 9.6 | 0.00 | 0.00 | 0.00 | 31 | 1015.6 |
| 20260502230503 | 81 | 303 | 1.7 | 12.2 | 0.00 | 0.00 | 0.00 | 32 | 1015.7 |
| 20260502230008 | 81 | 345 | 1.7 | 12.2 | 0.00 | 0.00 | 0.00 | 31 | 1015.8 |
| 20260502225503 | 81 | 340 | 4.3 | 12.2 | 0.00 | 0.00 | 0.00 | 30 | 1015.8 |
| 20260502225007 | 81 | 36 | 1.7 | 7.0 | 0.00 | 0.00 | 0.00 | 31 | 1015.9 |
| 20260502224524 | 81 | 130 | 0.9 | 7.8 | 0.00 | 0.00 | 0.00 | 33 | 1016.0 |
| 20260502224004 | 81 | 96 | 1.7 | 7.8 | 0.00 | 0.00 | 0.00 | 33 | 1016.1 |
| 20260502223507 | 81 | 360 | 4.3 | 7.0 | 0.00 | 0.00 | 0.00 | 32 | 1016.1 |
| 20260502223005 | 81 | 42 | 0.9 | 5.2 | 0.00 | 0.00 | 0.00 | 35 | 1016.1 |
| 20260502222504 | 81 | 14 | 2.6 | 8.7 | 0.00 | 0.00 | 0.00 | 35 | 1016.2 |
| 20260502222006 | 80 | 21 | 0.9 | 8.7 | 0.00 | 0.00 | 0.00 | 35 | 1016.3 |
| 20260502221516 | 80 | 352 | 2.6 | 8.7 | 0.00 | 0.00 | 0.00 | 35 | 1016.4 |
| 20260502221003 | 80 | 17 | 3.5 | 8.7 | 0.00 | 0.00 | 0.00 | 34 | 1016.3 |
| 20260502220503 | 81 | 24 | 1.7 | 7.8 | 0.00 | 0.00 | 0.00 | 33 | 1016.3 |
| 20260502220019 | 81 | 41 | 1.7 | 8.7 | 0.00 | 0.00 | 0.00 | 34 | 1016.3 |
| 20260502215503 | 81 | 333 | 0.9 | 8.7 | 0.00 | 0.00 | 0.00 | 32 | 1016.3 |
| 20260502215004 | 81 | 5 | 1.7 | 7.0 | 0.00 | 0.00 | 0.00 | 34 | 1016.3 |
| 20260502214509 | 80 | 5 | 2.6 | 7.0 | 0.00 | 0.00 | 0.00 | 32 | 1016.3 |
| 20260502214007 | 81 | 5 | 1.7 | 7.0 | 0.00 | 0.00 | 0.00 | 32 | 1016.3 |
| 20260502213504 | 80 | 360 | 0.9 | 7.0 | 0.00 | 0.00 | 0.00 | 31 | 1016.4 |
| 20260502213019 | 80 | 342 | 2.6 | 7.0 | 0.00 | 0.00 | 0.00 | 32 | 1016.4 |
| 20260502212508 | 79 | 5 | 1.7 | 4.3 | 0.00 | 0.00 | 0.00 | 31 | 1016.5 |
| 20260502212008 | 79 | 157 | 0.9 | 7.8 | 0.00 | 0.00 | 0.00 | 31 | 1016.6 |
| 20260502211505 | 80 | 51 | 2.6 | 7.8 | 0.00 | 0.00 | 0.00 | 32 | 1016.5 |
| 20260502211007 | 79 | 20 | 2.6 | 7.8 | 0.00 | 0.00 | 0.00 | 35 | 1016.6 |
| 20260502210506 | 79 | 71 | 0.0 | 5.2 | 0.00 | 0.00 | 0.00 | 35 | 1016.6 |
| 20260502210004 | 79 | 101 | 0.9 | 5.2 | 0.00 | 0.00 | 0.00 | 36 | 1016.6 |
| 20260502205504 | 79 | 93 | 0.9 | 7.0 | 0.00 | 0.00 | 0.00 | 33 | 1016.7 |
| 20260502205008 | 78 | 15 | 1.7 | 7.8 | 0.00 | 0.00 | 0.00 | 33 | 1016.6 |
| 20260502204520 | 78 | 324 | 1.7 | 7.8 | 0.00 | 0.00 | 0.00 | 37 | 1016.7 |
| 20260502204006 | 78 | 5 | 2.6 | 7.0 | 0.00 | 0.00 | 0.00 | 35 | 1016.7 |
| 20260502203505 | 78 | 9 | 0.9 | 5.2 | 0.00 | 0.00 | 0.00 | 38 | 1016.8 |
| 20260502203020 | 78 | 327 | 2.6 | 7.0 | 0.00 | 0.00 | 0.00 | 35 | 1016.9 |
| 20260502202507 | 77 | 331 | 0.9 | 7.0 | 0.00 | 0.00 | 0.00 | 39 | 1017.0 |
| 20260502202004 | 77 | 5 | 2.6 | 4.3 | 0.00 | 0.00 | 0.00 | 39 | 1017.0 |
| 20260502201524 | 76 | 342 | 1.7 | 7.8 | 0.00 | 0.00 | 0.00 | 42 | 1017.0 |
| 20260502201008 | 75 | 340 | 3.5 | 7.8 | 0.00 | 0.00 | 0.00 | 40 | 1017.1 |